Hourly Data Report for April 21, 2020

TORONTO CITY
ONTARIO
Current Station Operator: ECCC - MSC

43°40'00.000" N
79°24'00.000" W
112.50 m
6158355
71508
XTO

Download Data

Hourly Data (April 2020)
Hourly Data Report for April 21, 2020
TIME
LST
Temp Definition
°C
Dew Point Definition
°C
Rel Hum Definition
%
Precip. Amount Definition
mm

Wind Dir Definition
10's deg

Wind Spd Definition
km/h
Visibility Definition
km
Stn Press Definition
kPa
Hmdx Definition


Wind Chill Definition


Weather Definition


00:00 4.6 -3.2 57 0.0       98.39     LegendNANA
01:00 5.2 -5.0 48 0.0       98.21     LegendNANA
02:00 6.0 -3.7 49 0.0       97.94     LegendNANA
03:00 6.6 -1.4 56 0.0       97.78     LegendNANA
04:00 7.5 1.6 66 0.0       97.70     LegendNANA
05:00 7.0 3.6 79 0.3       97.71     LegendNANA
06:00 3.9 -2.1 65 0.3       97.92     LegendNANA
07:00 3.7 -1.9 67 0.0       98.16     LegendNANA
08:00 4.1 -6.6 46 0.0       98.34     LegendNANA
09:00 5.0 -7.7 39 0.0       98.48     LegendNANA
10:00 4.5 -9.6 35 0.0       98.57     LegendNANA
11:00 1.6 -5.0 62 0.0       98.73     LegendNANA
12:00 5.3 -7.7 38 0.0       98.76     LegendNANA
13:00 4.1 -10.5 34 0.3       98.86     LegendNANA
14:00 3.4 -10.1 37 0.0       98.93     LegendNANA
15:00 2.8 -8.0 45 0.0       99.02     LegendNANA
16:00 2.7 -9.3 41 0.0       99.11     LegendNANA
17:00 2.2 -8.7 44 0.0       99.21     LegendNANA
18:00 1.8 -7.8 49 0.0       99.28     LegendNANA
19:00 1.2 -8.1 50 0.0       99.38     LegendNANA
20:00 0.7 -7.5 54 0.0       99.48     LegendNANA
21:00 0.1 -7.9 55 0.0       99.56     LegendNANA
22:00 -0.2 -8.0 56 0.0       99.60     LegendNANA
23:00 -0.5 -7.7 58 0.0       99.64     LegendNANA

Notes on Data Quality.

Legend

  • E = Estimated
  • M = Missing
  • NA = Not Available*
  • [empty] = Indicates an unobserved value
Date modified: